CW6532 Weather Reports


Display with metric or nautical units.
time (UTC)temp
F
wind
direction
speed
MPH
gust
MPH
rain 1hr
in
rain 24hr
in
rain mn
in
humidity
%
barometer
mb
20181121082315 57 123 2.0 3.0 0.00 0.00 0.00 27 1018.7
20181121081310 56 123 0.0 2.0 0.00 0.00 0.00 27 1018.7
20181121080322 56 123 0.0 2.0 0.00 0.00 0.00 28 1018.8
20181121075314 56 123 2.0 2.0 0.00 0.00 0.00 28 1018.7
20181121074329 56 123 1.0 3.0 0.00 0.00 0.00 28 1018.8
20181121073322 56 123 2.0 3.0 0.00 0.00 0.00 27 1018.7
20181121072313 56 123 2.0 3.0 0.00 0.00 0.00 28 1018.7
20181121071325 56 123 2.0 4.0 0.00 0.00 0.00 28 1018.7
20181121070321 56 123 3.0 6.0 0.00 0.00 0.00 27 1018.7
20181121065312 56 155 4.0 5.0 0.00 0.00 0.00 28 1018.8
20181121064324 56 163 4.0 5.0 0.00 0.00 0.00 28 1018.7
20181121063320 57 169 4.0 5.0 0.00 0.00 0.00 27 1018.7
20181121062311 58 175 3.0 6.0 0.00 0.00 0.00 26 1018.7
20181121061323 58 164 6.0 9.0 0.00 0.00 0.00 27 1018.7
20181121060315 58 178 6.0 11.0 0.00 0.00 0.00 27 1018.7
20181121055311 57 173 9.0 13.0 0.00 0.00 0.00 27 1018.6
20181121054321 57 190 7.0 10.0 0.00 0.00 0.00 28 1018.6
20181121053313 57 176 9.0 11.0 0.00 0.00 0.00 28 1018.4
20181121052325 57 178 7.0 9.0 0.00 0.00 0.00 28 1018.3
20181121051321 56 186 6.0 8.0 0.00 0.00 0.00 27 1018.3
20181121050312 59 186 4.0 6.0 0.00 0.00 0.00 25 1018.1
20181121045324 61 160 5.0 6.0 0.00 0.00 0.00 23 1018.1
20181121044319 61 156 4.0 5.0 0.00 0.00 0.00 23 1018.0
20181121043310 62 156 2.0 6.0 0.00 0.00 0.00 23 1018.0
20181121042322 62 156 3.0 5.0 0.00 0.00 0.00 22 1017.9
20181121041313 62 156 2.0 3.0 0.00 0.00 0.00 22 1017.8
20181121040329 62 156 2.0 3.0 0.00 0.00 0.00 22 1017.6
20181121035320 62 156 2.0 3.0 0.00 0.00 0.00 22 1017.5
20181121034312 62 156 2.0 5.0 0.00 0.00 0.00 22 1017.5
20181121033328 62 156 2.0 3.0 0.00 0.00 0.00 22 1017.4
20181121032319 62 156 1.0 6.0 0.00 0.00 0.00 22 1017.4
20181121031310 62 146 4.0 5.0 0.00 0.00 0.00 22 1017.2
20181121030322 62 122 2.0 6.0 0.00 0.00 0.00 22 1017.1
20181121025317 62 102 3.0 6.0 0.00 0.00 0.00 22 1017.1
20181121024329 62 62 2.0 5.0 0.00 0.00 0.00 22 1017.0
20181121023321 62 34 3.0 5.0 0.00 0.00 0.00 22 1016.8
20181121022317 63 19 0.0 4.0 0.00 0.00 0.00 21 1016.7
20181121021328 62 18 3.0 4.0 0.00 0.00 0.00 22 1016.5
20181121020320 63 13 1.0 4.0 0.00 0.00 0.00 21 1016.6
20181121015312 64 336 2.0 3.0 0.00 0.00 0.00 21 1016.4
20181121014328 65 335 2.0 8.0 0.00 0.00 0.00 20 1016.3
20181121013319 65 301 2.0 9.0 0.00 0.00 0.00 20 1016.3
20181121012331 66 311 5.0 14.0 0.00 0.00 0.00 19 1015.9
20181121011322 65 313 9.0 15.0 0.00 0.00 0.00 19 1015.8
20181121010317 65 300 3.0 6.0 0.00 0.00 0.00 18 1015.5
20181121005329 66 30 3.0 6.0 0.00 0.00 0.00 18 1015.2
20181121004320 66 19 3.0 6.0 0.00 0.00 0.00 17 1015.1
20181121003316 68 21 4.0 5.0 0.00 0.00 0.00 17 1015.1
20181121002328 69 34 3.0 6.0 0.00 0.00 0.00 16 1014.9
20181121001319 70 30 4.0 8.0 0.00 0.00 0.00 15 1014.8
20181121000310 71 42 4.0 10.0 0.00 0.00 0.00 15 1014.6
20181120235326 71 46 5.0 10.0 0.00 0.00 0.00 14 1014.5
20181120234316 72 55 5.0 12.0 0.00 0.00 0.00 14 1014.4
20181120233328 72 54 8.0 12.0 0.00 0.00 0.00 14 1014.4
20181120232323 72 82 5.0 11.0 0.00 0.00 0.00 14 1014.5
20181120231314 73 40 6.0 11.0 0.00 0.00 0.00 13 1014.4
20181120230326 73 29 4.0 8.0 0.00 0.00 0.00 13 1014.5
20181120225317 73 32 4.0 9.0 0.00 0.00 0.00 13 1014.5
20181120224313 74 36 3.0 6.0 0.00 0.00 0.00 13 1014.6
20181120223325 74 5 4.0 6.0 0.00 0.00 0.00 13 1014.6
20181120222317 74 360 2.0 8.0 0.00 0.00 0.00 13 1014.6
20181120221312 74 21 4.0 9.0 0.00 0.00 0.00 13 1014.6
20181120220324 74 360 3.0 8.0 0.00 0.00 0.00 13 1014.5
20181120215315 75 13 3.0 6.0 0.00 0.00 0.00 13 1014.5
20181120214326 74 201 0.0 8.0 0.00 0.00 0.00 13 1014.4
20181120213322 75 198 5.0 8.0 0.00 0.00 0.00 13 1014.4
20181120212313 75 223 2.0 7.0 0.00 0.00 0.00 13 1014.3
20181120211324 76 202 5.0 11.0 0.00 0.00 0.00 12 1014.3
20181120210316 75 147 1.0 12.0 0.00 0.00 0.00 13 1014.4
20181120205312 75 178 5.0 10.0 0.00 0.00 0.00 12 1014.7
20181120204323 75 136 6.0 11.0 0.00 0.00 0.00 13 1014.8
20181120203314 75 163 6.0 11.0 0.00 0.00 0.00 12 1014.9
20181120202330 75 178 8.0 13.0 0.00 0.00 0.00 12 1015.1
20181120201320 75 162 5.0 15.0 0.00 0.00 0.00 12 1015.2
20181120200312 75 170 7.0 11.0 0.00 0.00 0.00 12 1015.4
20181120195324 74 194 8.0 15.0 0.00 0.00 0.00 12 1015.5
20181120194319 75 172 7.0 15.0 0.00 0.00 0.00 12 1015.7
20181120193312 75 124 7.0 14.0 0.00 0.00 0.00 12 1015.8
20181120192324 75 182 7.0 20.0 0.00 0.00 0.00 12 1016.0
20181120191318 76 153 6.0 13.0 0.00 0.00 0.00 12 1016.0
20181120190310 74 92 4.0 9.0 0.00 0.00 0.00 12 1016.4
20181120185323 74 146 1.0 6.0 0.00 0.00 0.00 12 1016.4
20181120184314 73 26 4.0 10.0 0.00 0.00 0.00 13 1016.5
20181120183330 74 61 3.0 6.0 0.00 0.00 0.00 13 1016.7
20181120182321 73 12 3.0 10.0 0.00 0.00 0.00 13 1016.8
20181120181311 72 5 3.0 6.0 0.00 0.00 0.00 13 1017.0
20181120180323 72 15 3.0 5.0 0.00 0.00 0.00 14 1017.1
20181120175319 70 36 4.0 7.0 0.00 0.00 0.00 14 1017.2
20181120174310 70 29 5.0 9.0 0.00 0.00 0.00 14 1017.3
20181120173322 69 81 6.0 9.0 0.00 0.00 0.00 14 1017.4
20181120172318 69 67 6.0 11.0 0.00 0.00 0.00 15 1017.5
20181120171328 68 73 9.0 13.0 0.00 0.00 0.00 15 1017.5
20181120170320 67 57 6.0 15.0 0.00 0.00 0.00 16 1017.6
20181120165311 66 74 8.0 15.0 0.00 0.00 0.00 16 1017.6
20181120164326 66 36 7.0 12.0 0.00 0.00 0.00 17 1017.8
20181120163318 64 18 7.0 10.0 0.00 0.00 0.00 18 1017.9
20181120162330 63 49 7.0 10.0 0.00 0.00 0.00 19 1017.9
20181120161325 62 55 2.0 5.0 0.00 0.00 0.00 21 1017.9
20181120160316 60 196 2.0 3.0 0.00 0.00 0.00 22 1017.9
20181120155329 59 209 1.0 3.0 0.00 0.00 0.00 24 1017.8
20181120154320 59 209 0.0 2.0 0.00 0.00 0.00 22 1017.7
20181120153316 59 209 2.0 3.0 0.00 0.00 0.00 23 1017.5
20181120152327 57 209 1.0 2.0 0.00 0.00 0.00 24 1017.6
20181120151318 56 210 4.0 5.0 0.00 0.00 0.00 23 1017.6
20181120150315 54 211 3.0 7.0 0.00 0.00 0.00 26 1017.7
20181120145326 54 218 3.0 6.0 0.00 0.00 0.00 25 1017.5
20181120144318 55 209 3.0 5.0 0.00 0.00 0.00 24 1017.4
20181120143330 57 207 2.0 4.0 0.00 0.00 0.00 22 1017.2
20181120142326 57 207 1.0 3.0 0.00 0.00 0.00 22 1017.1
20181120141317 57 207 2.0 3.0 0.00 0.00 0.00 21 1016.9
20181120140330 57 202 3.0 6.0 0.00 0.00 0.00 22 1016.9
20181120135321 54 202 5.0 6.0 0.00 0.00 0.00 24 1016.9
20181120134316 54 208 6.0 8.0 0.00 0.00 0.00 24 1016.7
20181120133329 55 227 4.0 6.0 0.00 0.00 0.00 24 1016.7
20181120132320 57 40 2.0 3.0 0.00 0.00 0.00 22 1016.6
20181120131315 58 40 0.0 3.0 0.00 0.00 0.00 21 1016.5
20181120130327 59 40 2.0 5.0 0.00 0.00 0.00 21 1016.4
20181120125319 58 190 2.0 3.0 0.00 0.00 0.00 21 1016.4
20181120124310 58 190 1.0 2.0 0.00 0.00 0.00 21 1016.4
20181120123326 57 190 0.0 3.0 0.00 0.00 0.00 21 1016.5
20181120122318 59 190 0.0 2.0 0.00 0.00 0.00 20 1016.5
20181120121329 58 190 2.0 3.0 0.00 0.00 0.00 20 1016.5
20181120120326 57 190 1.0 3.0 0.00 0.00 0.00 21 1016.7
20181120115317 58 191 1.0 3.0 0.00 0.00 0.00 20 1016.7
20181120114328 58 191 0.0 0.0 0.00 0.00 0.00 20 1016.7
20181120113320 58 191 0.0 3.0 0.00 0.00 0.00 20 1016.8
20181120112315 57 191 3.0 5.0 0.00 0.00 0.00 21 1016.8
20181120111327 55 191 3.0 5.0 0.00 0.00 0.00 22 1016.9
20181120110319 55 197 3.0 6.0 0.00 0.00 0.00 23 1016.9
20181120105315 55 197 2.0 5.0 0.00 0.00 0.00 22 1016.8
20181120104326 55 197 3.0 4.0 0.00 0.00 0.00 22 1016.8
20181120103318 56 197 4.0 6.0 0.00 0.00 0.00 21 1016.9
20181120102330 58 197 4.0 4.0 0.00 0.00 0.00 19 1017.0
20181120101324 57 197 2.0 3.0 0.00 0.00 0.00 20 1017.1
20181120100317 56 198 5.0 6.0 0.00 0.00 0.00 21 1017.1
20181120095328 57 179 4.0 5.0 0.00 0.00 0.00 20 1017.2
20181120094319 58 179 0.0 2.0 0.00 0.00 0.00 19 1017.3
20181120093315 58 179 1.0 2.0 0.00 0.00 0.00 19 1017.3
20181120092327 58 179 2.0 5.0 0.00 0.00 0.00 19 1017.6
20181120091318 56 178 4.0 5.0 0.00 0.00 0.00 21 1017.6
20181120090314 54 178 3.0 7.0 0.00 0.00 0.00 22 1017.8
20181120085326 52 182 5.0 9.0 0.00 0.00 0.00 24 1017.9
20181120084318 54 186 3.0 5.0 0.00 0.00 0.00 22 1017.8
20181120083329 54 186 1.0 7.0 0.00 0.00 0.00 23 1017.9